Weather History for KSHR - April, 2013

Change the Weather History Date:

Tuesday, April 30, 2013

  Actual Average Record
Temperature  
Mean Temperature 39 °F 48 °F  
Max Temperature 49 °F 62 °F 84 °F (1926)
Min Temperature 29 °F 34 °F 10 °F (1950)
Degree Days  
Heating Degree Days 26 17  
Month to date heating degree days 813 642  
Since 1 July heating degree days 7092 7101  
Cooling Degree Days 0 0  
Month to date cooling degree days 0 0  
Year to date cooling degree days 0 0  
Moisture  
Dew Point 26 °F    
Average Humidity 63    
Maximum Humidity 92    
Minimum Humidity 33    
Precipitation  
Precipitation 0.01 in 0.07 in 1.17 in (2003)
Month to date precipitation 2.27 1.60  
Year to date precipitation 4.29 3.68  
Sea Level Pressure  
Sea Level Pressure 30.02 in    
Wind  
Wind Speed 12 mph (NW)    
Max Wind Speed 24 mph    
Max Gust Speed 33 mph    
Visibility 8 miles    
Events Snow    
T = Trace of Precipitation, MM = Missing Value Source: NWS Daily Summary

Daily Weather History Graph

Daily Weather History Graph

Search for Another Location

Airport or City:

Trip Planner

Search our weather history database for the weather conditions in past years. The results will help you decide how hot, cold, wet, or windy it might be!

Date:

Astronomy

Apr. 30, 2013 Rise Set
Actual Time 5:58 AM MDT 8:12 PM MDT
Civil Twilight 5:26 AM MDT 8:44 PM MDT
Nautical Twilight 4:47 AM MDT 9:24 PM MDT
Astronomical Twilight 4:02 AM MDT 10:08 PM MDT
Moon 12:40 AM MDT (4/30) 10:28 AM MDT (4/30)
Length of Visible Light 15h 17m
Length of Day
14h 13m
Waning Gibbous, 69% of the Moon is Illuminated
Apr 30
Waning Gibbous
May 2
Last Quarter
May 9
New
May 17
First Quarter
May 24
Full

Hourly Weather History & Observations

Time (MDT) Temp. Windchill Dew Point Humidity Pressure Visibility Wind Dir Wind Speed Gust Speed Precip Events Conditions
12:53 AM 39.9 °F 32.9 °F 28.9 °F 65% 29.72 in 10.0 mi WNW 11.5 mph - N/A   Mostly Cloudy
1:53 AM 39.0 °F 29.6 °F 21.0 °F 49% 29.73 in 10.0 mi NW 18.4 mph - N/A   Overcast
2:53 AM 37.9 °F 30.5 °F 23.0 °F 55% 29.75 in 10.0 mi NW 11.5 mph - N/A   Overcast
3:53 AM 37.0 °F 30.4 °F 23.0 °F 57% 29.78 in 10.0 mi NNW 9.2 mph - N/A   Overcast
4:53 AM 37.0 °F 29.8 °F 21.9 °F 54% 29.79 in 10.0 mi NNW 10.4 mph - N/A   Overcast
5:53 AM 35.1 °F 27.9 °F 21.9 °F 59% 29.83 in 10.0 mi NNW 9.2 mph - N/A   Overcast
6:53 AM 36.0 °F 29.6 °F 19.0 °F 50% 29.87 in 10.0 mi North 8.1 mph - N/A   Overcast
7:53 AM 37.9 °F 31.5 °F 21.0 °F 51% 29.90 in 10.0 mi NW 9.2 mph - N/A   Overcast
8:53 AM 41.0 °F 32.2 °F 19.9 °F 43% 29.91 in 10.0 mi NNW 18.4 mph - N/A   Mostly Cloudy
9:53 AM 39.9 °F 31.4 °F 17.1 °F 40% 29.91 in 10.0 mi NNW 16.1 mph 26.5 mph N/A   Mostly Cloudy
10:53 AM 44.1 °F 35.7 °F 21.9 °F 42% 29.90 in 10.0 mi NNW 20.7 mph 28.8 mph N/A   Clear
11:53 AM 45.0 °F 37.6 °F 21.0 °F 39% 29.90 in 10.0 mi NNW 17.3 mph 24.2 mph N/A   Scattered Clouds
12:53 PM 46.9 °F - 21.9 °F 37% 29.91 in 10.0 mi NNW 19.6 mph 28.8 mph N/A   Mostly Cloudy
1:53 PM 44.1 °F 37.7 °F 19.0 °F 37% 29.92 in 10.0 mi NW 12.7 mph 29.9 mph N/A   Overcast
2:53 PM 45.0 °F 37.4 °F 18.0 °F 34% 29.94 in 10.0 mi NNW 18.4 mph 24.2 mph N/A   Overcast
3:48 PM 42.8 °F 36.2 °F 21.2 °F 42% 29.92 in 10.0 mi NNE 12.7 mph - N/A   Overcast
3:53 PM 42.1 °F 34.5 °F 21.9 °F 45% 29.98 in 10.0 mi North 15.0 mph - N/A   Overcast
4:53 PM 39.0 °F 29.6 °F 26.1 °F 60% 30.03 in 9.0 mi NNE 18.4 mph - N/A   Overcast
5:01 PM 39.2 °F 30.8 °F 26.6 °F 61% 29.98 in 9.0 mi NE 15.0 mph 21.9 mph N/A   Overcast
5:25 PM 37.4 °F 34.9 °F 28.4 °F 70% 30.00 in 2.5 mi North 3.5 mph - 0.00 in Snow Light Snow
5:44 PM 37.4 °F 32.1 °F 26.6 °F 65% 30.02 in 9.0 mi Variable 6.9 mph - 0.00 in Snow Light Snow
5:53 PM 36.0 °F 33.3 °F 27.0 °F 70% 30.09 in 3.0 mi NW 3.5 mph 18.4 mph 0.00 in Snow Light Snow
6:04 PM 37.4 °F 29.3 °F 28.4 °F 70% 30.03 in 8.0 mi WNW 12.7 mph 18.4 mph 0.00 in   Overcast
6:12 PM 35.6 °F 27.1 °F 30.2 °F 81% 30.04 in 4.0 mi WNW 12.7 mph - 0.00 in Snow Light Snow
6:29 PM 35.6 °F 26.2 °F 30.2 °F 81% 30.04 in 9.0 mi West 15.0 mph - 0.00 in   Overcast
6:51 PM 35.6 °F 27.1 °F 30.2 °F 81% 30.07 in 2.5 mi West 12.7 mph - 0.00 in Snow Light Snow
6:53 PM 35.1 °F 28.6 °F 30.0 °F 82% 30.14 in 2.5 mi WNW 8.1 mph - 0.00 in Snow Light Snow
7:00 PM 35.6 °F 28.0 °F 30.2 °F 81% 30.07 in 6.0 mi West 10.4 mph - 0.00 in Snow Light Snow
7:17 PM 35.6 °F 29.9 °F 30.2 °F 81% 30.08 in 10.0 mi West 6.9 mph - 0.00 in   Overcast
7:42 PM 35.6 °F 29.2 °F 28.4 °F 75% 30.10 in 6.0 mi WNW 8.1 mph 19.6 mph 0.00 in Snow Light Snow
7:53 PM 35.1 °F 26.4 °F 28.9 °F 78% 30.17 in 9.0 mi WNW 12.7 mph - 0.00 in   Overcast
8:47 PM 33.8 °F 27.0 °F 28.4 °F 81% 30.15 in 2.5 mi NW 8.1 mph - 0.00 in Snow Light Snow
8:53 PM 33.1 °F 25.5 °F 28.9 °F 85% 30.23 in 2.0 mi WNW 9.2 mph - 0.00 in Snow Light Snow
9:10 PM 33.8 °F 27.0 °F 30.2 °F 87% 30.17 in 4.0 mi NW 8.1 mph - 0.00 in Snow Light Snow
9:24 PM 32.0 °F 24.8 °F 30.2 °F 93% 30.18 in 1.8 mi NW 8.1 mph - 0.00 in Snow Light Snow
9:48 PM 32.0 °F 25.6 °F 30.2 °F 93% 30.19 in 2.5 mi NW 6.9 mph - 0.01 in Snow Light Snow
9:53 PM 32.0 °F 25.6 °F 30.9 °F 96% 30.27 in 3.0 mi WNW 6.9 mph - 0.01 in Snow Light Snow
10:07 PM 32.0 °F 26.4 °F 30.2 °F 93% 30.19 in 6.0 mi WNW 5.8 mph - 0.00 in Snow Light Snow
10:30 PM 32.0 °F 26.4 °F 30.2 °F 93% 30.20 in 9.0 mi NW 5.8 mph - 0.00 in   Overcast
10:38 PM 32.0 °F 27.5 °F 30.2 °F 93% 30.20 in 10.0 mi WNW 4.6 mph - 0.00 in   Overcast
10:53 PM 30.9 °F 26.2 °F 28.9 °F 92% 30.27 in 10.0 mi West 4.6 mph - 0.00 in   Overcast
11:53 PM 30.9 °F 23.5 °F 27.0 °F 85% 30.27 in 10.0 mi NW 8.1 mph - N/A   Mostly Cloudy